sat.trackr.live / text

‹ back to catalog

STARLINK-34813

NORAD 66195 · 2025-243U

PAYLOAD ACTIVE UNKNOWN

§ Identity

Operator
Country
US
Launch date
2025-10-26
Launch site
AFETR
Launch vehicle
Mass (kg)
RCS (m²)

Purposes: comms

External: N2YO · Heavens-Above · Gunter

§ Orbital elements

Epoch: 2026-09-20T23:12:45.452736Z

Period
93.85 min
Inclination
53.1584°
Eccentricity
0.0000692
Mean motion
15.34377910 rev/d
Perigee alt
462.3 km
Apogee alt
463.2 km
Semi-major
6,840.9 km
B*
6.9345e-4
RAAN
55.2262°
Arg perigee
89.4377°
Mean anomaly
270.6705°
Rev number
5,059

§ Raw data

STARLINK-348131 66195U 25243U   26263.96719274  .00023109  00000+0  69345-3 0  99912 66195  53.1584  55.2262 0000692  89.4377 270.6705 15.34377910 50598

JSON: /api/v1/satellites/66195 · /tle

For live sub-satellite position, see the globe view (requires WebGL).

§ Visibility from observer

Set your observer location to see the next 7 days of passes ≥ 10°. The values pass through the URL so the page stays shareable.

No JS? Fill the form by hand. The geolocation button needs JavaScript.